| time (UTC) | temp F | wind direction | speed MPH | gust MPH | rain 1hr in | rain 24hr in | rain mn in | humidity % | barometer mb |
| 20260905201505 | 58 | 0 | 0.0 | 0.0 | 0.00 | 0.00 | 0.00 | 87 | 1025.5 |
| 20260905201005 | 58 | 0 | 0.0 | 0.0 | 0.00 | 0.00 | 0.00 | 88 | 1025.6 |
| 20260905200505 | 58 | 0 | 0.0 | 0.0 | 0.00 | 0.00 | 0.00 | 87 | 1025.5 |
| 20260905200005 | 58 | 0 | 0.0 | 0.0 | 0.00 | 0.00 | 0.00 | 87 | 1025.5 |
| 20260905195504 | 58 | 0 | 0.0 | 0.0 | 0.00 | 0.00 | 0.00 | 86 | 1025.5 |
| 20260905195006 | 58 | 0 | 0.0 | 0.0 | 0.00 | 0.00 | 0.00 | 86 | 1025.4 |
| 20260905194005 | 58 | 0 | 0.0 | 0.0 | 0.00 | 0.00 | 0.00 | 85 | 1025.3 |
| 20260905193505 | 59 | 0 | 0.0 | 0.0 | 0.00 | 0.00 | 0.00 | 84 | 1025.3 |
| 20260905193004 | 59 | 0 | 0.0 | 0.0 | 0.00 | 0.00 | 0.00 | 83 | 1025.2 |
| 20260905192505 | 60 | 0 | 0.0 | 0.0 | 0.00 | 0.00 | 0.00 | 83 | 1025.2 |
| 20260905191505 | 60 | 0 | 0.0 | 0.0 | 0.00 | 0.00 | 0.00 | 82 | 1025.2 |
| 20260905191005 | 60 | 0 | 0.0 | 0.0 | 0.00 | 0.00 | 0.00 | 81 | 1025.1 |
| 20260905190504 | 60 | 0 | 0.0 | 0.0 | 0.00 | 0.00 | 0.00 | 81 | 1025.2 |
| 20260905190005 | 61 | 0 | 0.0 | 0.0 | 0.00 | 0.00 | 0.00 | 80 | 1025.2 |
| 20260905185504 | 61 | 0 | 0.0 | 0.0 | 0.00 | 0.00 | 0.00 | 80 | 1025.1 |
| 20260905185005 | 61 | 0 | 0.0 | 0.0 | 0.00 | 0.00 | 0.00 | 79 | 1025.1 |
| 20260905184504 | 62 | 0 | 0.0 | 0.0 | 0.00 | 0.00 | 0.00 | 78 | 1025.1 |
| 20260905183505 | 62 | 0 | 0.0 | 0.0 | 0.00 | 0.00 | 0.00 | 78 | 1025.0 |
| 20260905183004 | 62 | 0 | 0.0 | 0.0 | 0.00 | 0.00 | 0.00 | 78 | 1024.9 |
| 20260905182505 | 62 | 0 | 0.0 | 0.0 | 0.00 | 0.00 | 0.00 | 77 | 1024.8 |
| 20260905182004 | 63 | 0 | 0.0 | 0.0 | 0.00 | 0.00 | 0.00 | 77 | 1024.8 |
| 20260905181505 | 63 | 0 | 0.0 | 0.0 | 0.00 | 0.00 | 0.00 | 76 | 1024.9 |
| 20260905181005 | 63 | 0 | 0.0 | 0.0 | 0.00 | 0.00 | 0.00 | 75 | 1024.9 |
| 20260905180005 | 64 | 0 | 0.0 | 0.0 | 0.00 | 0.00 | 0.00 | 73 | 1024.8 |
| 20260905175505 | 65 | 297 | 1.0 | 5.0 | 0.00 | 0.00 | 0.00 | 72 | 1024.8 |
| 20260905175005 | 65 | 295 | 1.0 | 5.0 | 0.00 | 0.00 | 0.00 | 72 | 1024.7 |
| 20260905174005 | 65 | 292 | 3.0 | 10.0 | 0.00 | 0.00 | 0.00 | 70 | 1024.8 |
| 20260905173006 | 65 | 284 | 5.0 | 11.0 | 0.00 | 0.00 | 0.00 | 69 | 1024.8 |
| 20260905172505 | 65 | 279 | 4.0 | 10.0 | 0.00 | 0.00 | 0.00 | 70 | 1024.8 |
| 20260905171505 | 65 | 277 | 4.0 | 9.0 | 0.00 | 0.00 | 0.00 | 69 | 1024.7 |
| 20260905170505 | 66 | 275 | 5.0 | 12.0 | 0.00 | 0.00 | 0.00 | 67 | 1024.6 |
| 20260905165505 | 66 | 279 | 4.0 | 9.0 | 0.00 | 0.00 | 0.00 | 67 | 1024.5 |
| 20260905165004 | 66 | 270 | 4.0 | 10.0 | 0.00 | 0.00 | 0.00 | 67 | 1024.5 |
| 20260905164505 | 67 | 266 | 6.0 | 14.0 | 0.00 | 0.00 | 0.00 | 64 | 1024.5 |
| 20260905164005 | 68 | 269 | 7.0 | 15.0 | 0.00 | 0.00 | 0.00 | 62 | 1024.4 |
| 20260905163504 | 68 | 268 | 7.0 | 15.0 | 0.00 | 0.00 | 0.00 | 62 | 1024.4 |
| 20260905162004 | 68 | 268 | 6.0 | 14.0 | 0.00 | 0.00 | 0.00 | 61 | 1024.2 |
| 20260905161505 | 68 | 269 | 6.0 | 14.0 | 0.00 | 0.00 | 0.00 | 62 | 1024.2 |
| 20260905161004 | 68 | 268 | 7.0 | 14.0 | 0.00 | 0.00 | 0.00 | 62 | 1024.1 |
| 20260905160505 | 68 | 270 | 7.0 | 15.0 | 0.00 | 0.00 | 0.00 | 62 | 1024.1 |
| 20260905160005 | 68 | 274 | 6.0 | 15.0 | 0.00 | 0.00 | 0.00 | 62 | 1024.0 |
| 20260905155504 | 68 | 272 | 7.0 | 15.0 | 0.00 | 0.00 | 0.00 | 62 | 1024.0 |
| 20260905155005 | 69 | 268 | 8.0 | 17.0 | 0.00 | 0.00 | 0.00 | 61 | 1023.9 |
| 20260905154005 | 69 | 268 | 7.0 | 17.0 | 0.00 | 0.00 | 0.00 | 59 | 1023.7 |
| 20260905153506 | 70 | 269 | 7.0 | 17.0 | 0.00 | 0.00 | 0.00 | 60 | 1023.7 |
| 20260905153004 | 70 | 268 | 7.0 | 16.0 | 0.00 | 0.00 | 0.00 | 59 | 1023.7 |
| 20260905152505 | 70 | 272 | 7.0 | 16.0 | 0.00 | 0.00 | 0.00 | 58 | 1023.7 |
| 20260905152004 | 70 | 277 | 8.0 | 15.0 | 0.00 | 0.00 | 0.00 | 57 | 1023.6 |
| 20260905151505 | 70 | 274 | 7.0 | 15.0 | 0.00 | 0.00 | 0.00 | 59 | 1023.6 |
| 20260905150505 | 67 | 272 | 7.0 | 14.0 | 0.00 | 0.00 | 0.00 | 63 | 1023.7 |
| 20260905145505 | 69 | 274 | 7.0 | 13.0 | 0.00 | 0.00 | 0.00 | 60 | 1023.6 |
| 20260905145004 | 70 | 270 | 9.0 | 18.0 | 0.00 | 0.00 | 0.00 | 56 | 1023.6 |
| 20260905144505 | 71 | 273 | 9.0 | 19.0 | 0.00 | 0.00 | 0.00 | 56 | 1023.5 |
| 20260905144005 | 70 | 272 | 10.0 | 19.0 | 0.00 | 0.00 | 0.00 | 56 | 1023.5 |
| 20260905143505 | 70 | 270 | 9.0 | 18.0 | 0.00 | 0.00 | 0.00 | 55 | 1023.4 |
| 20260905142505 | 70 | 272 | 7.0 | 16.0 | 0.00 | 0.00 | 0.00 | 57 | 1023.3 |
| 20260905142004 | 71 | 274 | 8.0 | 16.0 | 0.00 | 0.00 | 0.00 | 57 | 1023.2 |
| 20260905141505 | 71 | 274 | 8.0 | 16.0 | 0.00 | 0.00 | 0.00 | 55 | 1023.2 |
| 20260905141005 | 71 | 273 | 8.0 | 17.0 | 0.00 | 0.00 | 0.00 | 56 | 1023.1 |
| 20260905140504 | 70 | 270 | 9.0 | 17.0 | 0.00 | 0.00 | 0.00 | 57 | 1023.1 |
| 20260905140005 | 69 | 273 | 10.0 | 18.0 | 0.00 | 0.00 | 0.00 | 60 | 1023.0 |
| 20260905135505 | 69 | 272 | 10.0 | 18.0 | 0.00 | 0.00 | 0.00 | 56 | 1023.0 |
| 20260905135005 | 69 | 270 | 9.0 | 18.0 | 0.00 | 0.00 | 0.00 | 61 | 1022.9 |
| 20260905134504 | 70 | 270 | 9.0 | 18.0 | 0.00 | 0.00 | 0.00 | 62 | 1022.9 |
| 20260905134005 | 70 | 272 | 9.0 | 18.0 | 0.00 | 0.00 | 0.00 | 60 | 1022.8 |
| 20260905133505 | 69 | 270 | 8.0 | 16.0 | 0.00 | 0.00 | 0.00 | 63 | 1022.8 |
| 20260905132004 | 70 | 270 | 8.0 | 17.0 | 0.00 | 0.00 | 0.00 | 58 | 1022.7 |
| 20260905131505 | 71 | 270 | 9.0 | 17.0 | 0.00 | 0.00 | 0.00 | 54 | 1022.6 |
| 20260905130504 | 70 | 275 | 10.0 | 23.0 | 0.00 | 0.00 | 0.00 | 57 | 1022.5 |
| 20260905130005 | 69 | 276 | 10.0 | 23.0 | 0.00 | 0.00 | 0.00 | 59 | 1022.5 |
| 20260905125504 | 69 | 277 | 10.0 | 20.0 | 0.00 | 0.00 | 0.00 | 59 | 1022.5 |
| 20260905125005 | 69 | 278 | 10.0 | 22.0 | 0.00 | 0.00 | 0.00 | 60 | 1022.5 |
| 20260905124504 | 70 | 278 | 10.0 | 22.0 | 0.00 | 0.00 | 0.00 | 57 | 1022.5 |
| 20260905124005 | 70 | 274 | 9.0 | 20.0 | 0.00 | 0.00 | 0.00 | 60 | 1022.5 |
| 20260905123505 | 70 | 269 | 10.0 | 19.0 | 0.00 | 0.00 | 0.00 | 60 | 1022.4 |
| 20260905123005 | 70 | 270 | 10.0 | 19.0 | 0.00 | 0.00 | 0.00 | 58 | 1022.3 |
| 20260905122505 | 70 | 277 | 9.0 | 16.0 | 0.00 | 0.01 | 0.00 | 59 | 1022.2 |
| 20260905122005 | 68 | 283 | 9.0 | 21.0 | 0.00 | 0.01 | 0.00 | 62 | 1022.2 |
| 20260905120506 | 70 | 279 | 9.0 | 21.0 | 0.00 | 0.01 | 0.00 | 59 | 1022.1 |
| 20260905115505 | 73 | 280 | 9.0 | 20.0 | 0.00 | 0.01 | 0.00 | 59 | 1022.1 |
| 20260905115004 | 72 | 279 | 8.0 | 19.0 | 0.00 | 0.01 | 0.00 | 60 | 1022.0 |
| 20260905114505 | 71 | 273 | 9.0 | 19.0 | 0.00 | 0.02 | 0.00 | 62 | 1022.0 |
| 20260905113505 | 71 | 267 | 9.0 | 21.0 | 0.00 | 0.03 | 0.00 | 60 | 1021.8 |
| 20260905113004 | 71 | 270 | 7.0 | 15.0 | 0.00 | 0.04 | 0.00 | 60 | 1021.8 |
| 20260905112004 | 69 | 270 | 8.0 | 15.0 | 0.00 | 0.06 | 0.00 | 63 | 1021.6 |
| 20260905111005 | 70 | 270 | 9.0 | 21.0 | 0.00 | 0.16 | 0.00 | 60 | 1021.5 |
| 20260905110505 | 71 | 266 | 10.0 | 21.0 | 0.00 | 0.18 | 0.00 | 61 | 1021.5 |
| 20260905110005 | 69 | 270 | 9.0 | 19.0 | 0.00 | 0.18 | 0.00 | 63 | 1021.4 |
| 20260905105505 | 69 | 276 | 9.0 | 18.0 | 0.00 | 0.19 | 0.00 | 61 | 1021.5 |
| 20260905104506 | 70 | 272 | 9.0 | 21.0 | 0.00 | 0.19 | 0.00 | 64 | 1021.3 |
| 20260905104005 | 68 | 271 | 10.0 | 20.0 | 0.00 | 0.19 | 0.00 | 62 | 1021.2 |
| 20260905103504 | 69 | 279 | 10.0 | 19.0 | 0.00 | 0.19 | 0.00 | 61 | 1021.2 |
| 20260905103004 | 70 | 284 | 9.0 | 18.0 | 0.00 | 0.19 | 0.00 | 62 | 1021.1 |
| 20260905102504 | 70 | 283 | 9.0 | 16.0 | 0.00 | 0.19 | 0.00 | 62 | 1021.1 |
| 20260905102005 | 70 | 279 | 10.0 | 21.0 | 0.00 | 0.19 | 0.00 | 64 | 1021.0 |
| 20260905101505 | 69 | 276 | 11.0 | 21.0 | 0.00 | 0.19 | 0.00 | 63 | 1020.9 |
| 20260905101005 | 69 | 270 | 10.0 | 21.0 | 0.00 | 0.19 | 0.00 | 64 | 1020.9 |
| 20260905100006 | 69 | 276 | 10.0 | 20.0 | 0.00 | 0.19 | 0.00 | 62 | 1020.8 |
| 20260905095506 | 69 | 276 | 8.0 | 19.0 | 0.00 | 0.19 | 0.00 | 64 | 1020.8 |
| 20260905095006 | 69 | 277 | 8.0 | 18.0 | 0.00 | 0.19 | 0.00 | 67 | 1020.7 |
| 20260905094505 | 69 | 276 | 8.0 | 18.0 | 0.00 | 0.19 | 0.00 | 64 | 1020.7 |
| 20260905094005 | 70 | 275 | 9.0 | 19.0 | 0.00 | 0.19 | 0.00 | 64 | 1020.6 |
| 20260905092005 | 68 | 274 | 10.0 | 17.0 | 0.00 | 0.19 | 0.00 | 67 | 1020.3 |
| 20260905091505 | 67 | 275 | 8.0 | 16.0 | 0.00 | 0.19 | 0.00 | 71 | 1020.2 |
| 20260905090005 | 68 | 274 | 9.0 | 20.0 | 0.00 | 0.19 | 0.00 | 68 | 1020.1 |
| 20260905085505 | 67 | 278 | 9.0 | 19.0 | 0.00 | 0.19 | 0.00 | 71 | 1020.0 |
| 20260905085004 | 67 | 278 | 7.0 | 19.0 | 0.00 | 0.19 | 0.00 | 72 | 1020.0 |
| 20260905084005 | 67 | 270 | 7.0 | 14.0 | 0.00 | 0.19 | 0.00 | 72 | 1019.9 |
| 20260905083505 | 68 | 271 | 7.0 | 16.0 | 0.00 | 0.19 | 0.00 | 70 | 1019.7 |
| 20260905083005 | 67 | 270 | 7.0 | 19.0 | 0.00 | 0.19 | 0.00 | 73 | 1019.6 |
| 20260905082005 | 67 | 276 | 7.0 | 16.0 | 0.00 | 0.19 | 0.00 | 72 | 1019.4 |
| 20260905081505 | 66 | 276 | 8.0 | 16.0 | 0.00 | 0.19 | 0.00 | 73 | 1019.3 |
| 20260905081005 | 66 | 274 | 8.0 | 16.0 | 0.00 | 0.19 | 0.00 | 73 | 1019.3 |
| 20260905080505 | 66 | 274 | 9.0 | 18.0 | 0.00 | 0.19 | 0.00 | 73 | 1019.2 |
| 20260905080005 | 65 | 277 | 9.0 | 18.0 | 0.00 | 0.19 | 0.00 | 74 | 1019.2 |
| 20260905075005 | 65 | 272 | 10.0 | 18.0 | 0.00 | 0.19 | 0.00 | 75 | 1019.1 |
| 20260905074505 | 65 | 274 | 11.0 | 18.0 | 0.00 | 0.19 | 0.00 | 74 | 1019.1 |
| 20260905074006 | 65 | 276 | 10.0 | 21.0 | 0.00 | 0.19 | 0.00 | 76 | 1019.0 |
| 20260905073505 | 65 | 272 | 9.0 | 21.0 | 0.00 | 0.19 | 0.00 | 76 | 1019.0 |
| 20260905073006 | 65 | 271 | 9.0 | 18.0 | 0.00 | 0.19 | 0.00 | 77 | 1018.9 |
| 20260905072505 | 65 | 276 | 9.0 | 18.0 | 0.00 | 0.19 | 0.00 | 76 | 1018.7 |
| 20260905072005 | 64 | 276 | 8.0 | 16.0 | 0.00 | 0.19 | 0.00 | 78 | 1018.7 |
| 20260905071505 | 64 | 274 | 8.0 | 16.0 | 0.00 | 0.19 | 0.00 | 78 | 1018.7 |
| 20260905071005 | 64 | 271 | 9.0 | 19.0 | 0.00 | 0.19 | 0.00 | 79 | 1018.6 |
| 20260905070505 | 64 | 273 | 10.0 | 19.0 | 0.00 | 0.19 | 0.00 | 78 | 1018.6 |
| 20260905070005 | 64 | 276 | 8.0 | 17.0 | 0.00 | 0.19 | 0.00 | 78 | 1018.5 |
| 20260905065507 | 64 | 275 | 7.0 | 17.0 | 0.00 | 0.19 | 0.00 | 78 | 1018.5 |
| 20260905064506 | 64 | 270 | 7.0 | 15.0 | 0.00 | 0.19 | 0.00 | 79 | 1018.4 |
| 20260905064005 | 64 | 266 | 6.0 | 17.0 | 0.00 | 0.19 | 0.00 | 79 | 1018.4 |
| 20260905063005 | 64 | 270 | 7.0 | 17.0 | 0.00 | 0.19 | 0.00 | 80 | 1018.3 |
| 20260905062505 | 63 | 268 | 6.0 | 17.0 | 0.00 | 0.19 | 0.00 | 81 | 1018.2 |
| 20260905062005 | 63 | 268 | 5.0 | 12.0 | 0.00 | 0.19 | 0.00 | 82 | 1018.1 |
| 20260905061506 | 62 | 257 | 5.0 | 12.0 | 0.00 | 0.19 | 0.00 | 83 | 1018.1 |
| 20260905061006 | 62 | 242 | 4.0 | 12.0 | 0.00 | 0.19 | 0.00 | 86 | 1018.0 |
| 20260905060505 | 61 | 236 | 2.0 | 11.0 | 0.00 | 0.19 | 0.00 | 87 | 1018.0 |
| 20260905060005 | 60 | 236 | 1.0 | 6.0 | 0.00 | 0.19 | 0.00 | 88 | 1018.0 |
| 20260905055506 | 60 | 247 | 1.0 | 5.0 | 0.00 | 0.19 | 0.00 | 89 | 1018.0 |
| 20260905055005 | 59 | 242 | 0.0 | 3.0 | 0.00 | 0.19 | 0.00 | 89 | 1017.9 |
| 20260905054005 | 58 | 221 | 0.0 | 3.0 | 0.00 | 0.19 | 0.00 | 89 | 1017.8 |
| 20260905053505 | 58 | 215 | 0.0 | 4.0 | 0.00 | 0.19 | 0.00 | 90 | 1017.7 |
| 20260905053005 | 58 | 215 | 0.0 | 4.0 | 0.00 | 0.19 | 0.00 | 89 | 1017.7 |
| 20260905052006 | 57 | 223 | 0.0 | 2.0 | 0.00 | 0.19 | 0.00 | 90 | 1017.5 |
| 20260905050505 | 57 | 228 | 0.0 | 4.0 | 0.00 | 0.19 | 0.00 | 89 | 1017.4 |
| 20260905050005 | 57 | 212 | 0.0 | 4.0 | 0.00 | 0.19 | 0.00 | 89 | 1017.4 |
| 20260905045004 | 57 | 219 | 0.0 | 3.0 | 0.00 | 0.19 | 0.00 | 89 | 1017.2 |
| 20260905043505 | 57 | 218 | 1.0 | 3.0 | 0.00 | 0.19 | 0.00 | 88 | 1017.1 |
| 20260905043006 | 57 | 222 | 1.0 | 3.0 | 0.00 | 0.19 | 0.00 | 88 | 1017.1 |
| 20260905042505 | 57 | 224 | 0.0 | 3.0 | 0.00 | 0.19 | 0.00 | 87 | 1017.1 |
| 20260905042005 | 57 | 226 | 1.0 | 5.0 | 0.00 | 0.19 | 0.00 | 87 | 1017.1 |
| 20260905041005 | 57 | 218 | 0.0 | 3.0 | 0.00 | 0.19 | 0.00 | 87 | 1017.0 |
| 20260905040505 | 57 | 213 | 0.0 | 3.0 | 0.00 | 0.19 | 0.00 | 86 | 1017.0 |
| 20260905040005 | 57 | 214 | 0.0 | 5.0 | 0.00 | 0.19 | 0.00 | 86 | 1017.1 |
| 20260905035504 | 58 | 221 | 1.0 | 5.0 | 0.00 | 0.19 | 0.00 | 85 | 1017.0 |
| 20260905035005 | 58 | 222 | 1.0 | 6.0 | 0.00 | 0.19 | 0.00 | 85 | 1016.9 |
| 20260905034505 | 58 | 227 | 0.0 | 6.0 | 0.00 | 0.19 | 0.00 | 85 | 1016.9 |
| 20260905034005 | 58 | 220 | 0.0 | 3.0 | 0.00 | 0.19 | 0.00 | 85 | 1016.9 |
| 20260905033005 | 58 | 214 | 0.0 | 3.0 | 0.00 | 0.19 | 0.00 | 85 | 1016.9 |
| 20260905032505 | 58 | 218 | 0.0 | 3.0 | 0.00 | 0.19 | 0.00 | 84 | 1016.8 |
| 20260905032005 | 58 | 218 | 0.0 | 3.0 | 0.00 | 0.19 | 0.00 | 85 | 1016.8 |
| 20260905031504 | 58 | 210 | 0.0 | 1.0 | 0.00 | 0.19 | 0.00 | 84 | 1016.8 |
| 20260905031004 | 58 | 212 | 0.0 | 2.0 | 0.00 | 0.19 | 0.00 | 83 | 1016.7 |
| 20260905030504 | 59 | 213 | 0.0 | 2.0 | 0.00 | 0.19 | 0.00 | 82 | 1016.7 |
| 20260905030005 | 59 | 214 | 0.0 | 2.0 | 0.00 | 0.19 | 0.00 | 81 | 1016.6 |
| 20260905025505 | 60 | 219 | 0.0 | 4.0 | 0.00 | 0.19 | 0.00 | 80 | 1016.5 |
| 20260905024004 | 62 | 261 | 4.0 | 9.0 | 0.00 | 0.19 | 0.00 | 77 | 1016.5 |
| 20260905023504 | 62 | 262 | 4.0 | 9.0 | 0.00 | 0.19 | 0.00 | 76 | 1016.5 |
| 20260905023005 | 62 | 265 | 4.0 | 8.0 | 0.00 | 0.19 | 0.00 | 76 | 1016.5 |
| 20260905022505 | 62 | 269 | 4.0 | 10.0 | 0.00 | 0.19 | 0.00 | 76 | 1016.4 |
| 20260905022005 | 62 | 268 | 5.0 | 11.0 | 0.00 | 0.19 | 0.00 | 76 | 1016.4 |
| 20260905021505 | 62 | 267 | 4.0 | 11.0 | 0.00 | 0.19 | 0.00 | 76 | 1016.4 |
| 20260905021005 | 62 | 267 | 5.0 | 10.0 | 0.00 | 0.19 | 0.00 | 76 | 1016.3 |
| 20260905020005 | 62 | 267 | 5.0 | 11.0 | 0.00 | 0.19 | 0.00 | 76 | 1016.3 |
| 20260905015505 | 62 | 264 | 4.0 | 10.0 | 0.00 | 0.19 | 0.00 | 76 | 1016.3 |
| 20260905015005 | 62 | 265 | 4.0 | 9.0 | 0.00 | 0.19 | 0.00 | 76 | 1016.2 |
| 20260905013505 | 62 | 267 | 4.0 | 9.0 | 0.00 | 0.19 | 0.00 | 76 | 1016.2 |
| 20260905013006 | 62 | 263 | 4.0 | 11.0 | 0.00 | 0.19 | 0.00 | 76 | 1016.2 |
| 20260905012505 | 62 | 264 | 4.0 | 11.0 | 0.00 | 0.19 | 0.00 | 76 | 1016.2 |
| 20260905012005 | 62 | 262 | 4.0 | 11.0 | 0.00 | 0.19 | 0.00 | 76 | 1016.2 |
| 20260905011505 | 62 | 263 | 4.0 | 11.0 | 0.00 | 0.19 | 0.00 | 76 | 1016.0 |
| 20260905011004 | 62 | 262 | 4.0 | 9.0 | 0.00 | 0.19 | 0.00 | 76 | 1016.1 |
| 20260905010505 | 62 | 259 | 3.0 | 9.0 | 0.00 | 0.19 | 0.00 | 76 | 1016.1 |
| 20260905010005 | 63 | 268 | 4.0 | 10.0 | 0.00 | 0.19 | 0.00 | 76 | 1016.1 |
| 20260905005005 | 63 | 262 | 4.0 | 9.0 | 0.00 | 0.19 | 0.00 | 75 | 1016.1 |
| 20260905004505 | 63 | 265 | 3.0 | 9.0 | 0.00 | 0.19 | 0.00 | 75 | 1016.1 |
| 20260905004005 | 63 | 267 | 4.0 | 11.0 | 0.00 | 0.19 | 0.00 | 75 | 1016.1 |
| 20260905003505 | 63 | 267 | 4.0 | 11.0 | 0.00 | 0.19 | 0.00 | 75 | 1016.1 |
| 20260905002005 | 63 | 264 | 5.0 | 13.0 | 0.00 | 0.19 | 0.00 | 74 | 1016.0 |
| 20260905001505 | 63 | 265 | 5.0 | 12.0 | 0.00 | 0.19 | 0.00 | 74 | 1016.0 |
| 20260905001005 | 63 | 266 | 4.0 | 10.0 | 0.00 | 0.19 | 0.00 | 75 | 1016.0 |
| 20260905000505 | 63 | 270 | 5.0 | 11.0 | 0.00 | 0.19 | 0.00 | 74 | 1016.0 |
| 20260905000006 | 63 | 270 | 5.0 | 11.0 | 0.00 | 0.19 | 0.00 | 75 | 1015.9 |
| 20260904235505 | 63 | 263 | 4.0 | 10.0 | 0.00 | 0.19 | 0.00 | 75 | 1015.9 |
| 20260904235005 | 63 | 260 | 4.0 | 8.0 | 0.00 | 0.19 | 0.00 | 76 | 1015.9 |
| 20260904234506 | 63 | 265 | 3.0 | 8.0 | 0.00 | 0.19 | 0.00 | 75 | 1015.8 |
| 20260904234005 | 63 | 262 | 3.0 | 8.0 | 0.00 | 0.19 | 0.00 | 75 | 1015.8 |
| 20260904233505 | 62 | 263 | 3.0 | 8.0 | 0.00 | 0.19 | 0.00 | 75 | 1015.7 |
| 20260904233005 | 63 | 264 | 3.0 | 10.0 | 0.00 | 0.19 | 0.00 | 75 | 1015.7 |
| 20260904232505 | 63 | 262 | 3.0 | 10.0 | 0.00 | 0.19 | 0.00 | 75 | 1015.7 |
| 20260904232005 | 63 | 267 | 4.0 | 10.0 | 0.00 | 0.19 | 0.00 | 75 | 1015.6 |
| 20260904231005 | 63 | 266 | 4.0 | 8.0 | 0.00 | 0.19 | 0.00 | 74 | 1015.6 |
| 20260904230505 | 63 | 267 | 5.0 | 10.0 | 0.00 | 0.19 | 0.00 | 73 | 1015.6 |
| 20260904230006 | 63 | 270 | 5.0 | 11.0 | 0.00 | 0.19 | 0.00 | 73 | 1015.5 |
| 20260904225505 | 63 | 266 | 5.0 | 11.0 | 0.00 | 0.19 | 0.00 | 73 | 1015.6 |
| 20260904224505 | 63 | 262 | 5.0 | 10.0 | 0.00 | 0.19 | 0.00 | 73 | 1015.6 |
| 20260904224005 | 63 | 266 | 4.0 | 10.0 | 0.00 | 0.19 | 0.00 | 73 | 1015.6 |
| 20260904223505 | 63 | 264 | 4.0 | 9.0 | 0.00 | 0.19 | 0.00 | 73 | 1015.6 |
| 20260904223006 | 63 | 265 | 5.0 | 10.0 | 0.00 | 0.19 | 0.00 | 73 | 1015.6 |
| 20260904222005 | 64 | 268 | 6.0 | 11.0 | 0.00 | 0.19 | 0.00 | 72 | 1015.5 |
| 20260904220505 | 64 | 269 | 6.0 | 13.0 | 0.00 | 0.19 | 0.00 | 72 | 1015.4 |
| 20260904220005 | 64 | 272 | 6.0 | 14.0 | 0.00 | 0.19 | 0.00 | 72 | 1015.3 |
| 20260904215005 | 64 | 277 | 6.0 | 11.0 | 0.00 | 0.19 | 0.19 | 73 | 1015.3 |
| 20260904214506 | 64 | 273 | 6.0 | 13.0 | 0.00 | 0.19 | 0.19 | 73 | 1015.2 |
| 20260904213505 | 64 | 270 | 6.0 | 16.0 | 0.00 | 0.19 | 0.19 | 73 | 1015.1 |
| 20260904213005 | 64 | 272 | 6.0 | 16.0 | 0.00 | 0.19 | 0.19 | 73 | 1015.1 |
| 20260904212506 | 64 | 273 | 6.0 | 12.0 | 0.00 | 0.19 | 0.19 | 73 | 1015.0 |
| 20260904212005 | 64 | 272 | 5.0 | 12.0 | 0.00 | 0.19 | 0.19 | 73 | 1015.0 |
| 20260904211505 | 64 | 273 | 5.0 | 12.0 | 0.00 | 0.19 | 0.19 | 73 | 1014.9 |
| 20260904211005 | 64 | 273 | 5.0 | 11.0 | 0.00 | 0.19 | 0.19 | 73 | 1014.9 |
| 20260904210505 | 64 | 270 | 5.0 | 11.0 | 0.00 | 0.19 | 0.19 | 73 | 1014.9 |
| 20260904210006 | 64 | 270 | 4.0 | 11.0 | 0.00 | 0.19 | 0.19 | 73 | 1014.9 |
| 20260904205505 | 64 | 270 | 5.0 | 13.0 | 0.00 | 0.19 | 0.19 | 72 | 1014.9 |
| 20260904205005 | 65 | 267 | 6.0 | 13.0 | 0.00 | 0.19 | 0.19 | 71 | 1014.9 |
| 20260904204505 | 65 | 269 | 7.0 | 13.0 | 0.00 | 0.19 | 0.19 | 70 | 1014.9 |
| 20260904204006 | 65 | 272 | 7.0 | 13.0 | 0.00 | 0.19 | 0.19 | 70 | 1014.9 |
| 20260904203505 | 65 | 270 | 6.0 | 13.0 | 0.00 | 0.19 | 0.19 | 70 | 1014.8 |
| 20260904203005 | 65 | 270 | 6.0 | 12.0 | 0.00 | 0.19 | 0.19 | 71 | 1014.8 |
| 20260904202505 | 65 | 270 | 5.0 | 10.0 | 0.00 | 0.19 | 0.19 | 71 | 1014.7 |
| 20260904202005 | 65 | 269 | 5.0 | 12.0 | 0.00 | 0.19 | 0.19 | 72 | 1014.8 |